Powrót do katalogu

STARLINK-34824

AktywnyŁącznośćVLEO
NORAD 65042·PAYLOAD·🇺🇸 United States

Wystrzelony Jul 30, 2025 z Cape Canaveral Space Force Station

Loading…

Następne Przeloty (najbliższe 24 godziny)

TLE

ŚwieżeSource: CelesTrak SupGP

Epoka: Sep 14, 2026, 21:03 UTC

1 65042C 25161AD  26257.87756944 -.00091418  00000+0 -27001-2 0  2577
2 65042  53.1565 131.8784 0001272  81.2441 349.7512 15.34446295    13

Śledź STARLINK-34824 w czasie rzeczywistym z AllMySat

Download on the App Store